Welcome to the New NWS' Forecast!
Most changes are behind the scenes, but click here for differences you might notice.

Regional Weather Roundup (RWR)

Issued by National Weather Service (NWS)

                            
000
ASUS46 KSEW 152110
RWRWA 

WASHINGTON REGIONAL WEATHER ROUNDUP
NATIONAL WEATHER SERVICE SEATTLE WA
100 PM PST THU NOV 15 2018

NOTE:"FAIR" INDICATES FEW OR NO CLOUDS BELOW 12,000 FEET WITH NO 
SIGNIFICANT WEATHER AND/OR OBSTRUCTIONS TO VISIBILITY.

WAZ507-509-555>559-152200-
SEATTLE, TACOMA, EVERETT, AND VICINITY
  
CITY           SKY/WX    TMP DP  RH WIND       PRES   REMARKS
EVERETT        CLOUDY    52  46  80 S5        30.29F                  
BOEING FIELD   CLOUDY    55  45  68 SW5       30.30F                  
RENTON         CLOUDY    57  45  64 S3        30.29F                  
SEATAC AIRPORT CLOUDY    54  45  71 SW8       30.29F                  
JBLM-MCCHORD   CLOUDY    55  50  83 S6        30.29F                  
PUYALLUP       CLOUDY    55  46  71 CALM      30.29F                  
BREMERTON      CLOUDY    51  47  86 S7        30.28F                  
JBLM-FT LEWIS  CLOUDY    57  51  81 S6        30.29F                  
TACOMA NARROWS CLOUDY    53  45  74 S7        30.29F                  
$$
 
WAZ001-503-506-510-514-515-152200-
NORTH INTERIOR
  
CITY           SKY/WX    TMP DP  RH WIND       PRES   REMARKS
BELLINGHAM     LGT RAIN  53  47  79 S14G22    30.25F                  
FRIDAY HARBOR  CLOUDY    51  47  86 SE9       30.27F                  
EASTSOUND      CLOUDY    52  48  87 S13       30.24F                  
PORT ANGELES   CLOUDY    55  47  74 VRB3      30.25F                  
EDIZ HOOK      CLOUDY    49  47  90 CALM      30.26F                  
PORT TOWNSEND  CLOUDY    52  48  87 SE6       30.27F                  
NAS WHIDBEY    LGT RAIN  55  47  74 SE13G18   30.31F                  
ARLINGTON      CLOUDY    53  48  83 SE7       30.30F                  
BURLINGTON     PTSUNNY   52  50  93 S6        30.29F                  
$$
 
WAZ020-022-039-040-504-511-512-152200-
SOUTHWEST INTERIOR
  
CITY           SKY/WX    TMP DP  RH WIND       PRES   REMARKS
SHELTON        CLOUDY    54  47  77 SW13      30.27F                  
OLYMPIA        FAIR      55  46  71 CALM      30.30F                  
CHEHALIS       FAIR      57  46  67 CALM      30.31S                  
KELSO          CLOUDY    48  46  93 W3        30.32F FOG              
VANCOUVER      FAIR      52  45  77 W7        30.31S                  
SCAPPOOSE, OR  FAIR      55  46  71 CALM      30.31S                  
PORTLAND, OR   FAIR      53  45  74 CALM      30.31F                  
$$
 
WAZ021-516-517-152200-
WASHINGTON COAST
  
CITY           SKY/WX    TMP DP  RH WIND       PRES   REMARKS
FORKS          CLOUDY    53  49  86 S8        30.27F                  
HOQUIAM        CLOUDY    55  51  86 W8        30.31F                  
ASTORIA, OR    FAIR      53  49  86 N5        30.31F                  
$$
 
WAZ019-023-024-040-567>569-152200-
CASCADE MOUNTAINS AND COLUMBIA GORGE
  
CITY           SKY/WX    TMP DP  RH WIND       PRES   REMARKS
STAMPEDE PASS  NOT AVBL                                               
TROUTDALE, OR  CLOUDY    48  45  89 CALM      30.31F                  
HOOD RIVER, OR FAIR      46  41  81 CALM      30.28F                  
THE DALLES, OR CLOUDY    45  40  82 CALM      30.29F                  
$$

WAZ026-027-041>044-520-521-152200-
EAST SLOPES
  
CITY           SKY/WX    TMP DP  RH WIND       PRES   REMARKS
OMAK           FAIR      36  31  82 S6        30.26F                  
WENATCHEE      PTSUNNY   41  33  73 SE5       30.25F                  
ELLENSBURG     FAIR      57  36  45 VRB3      30.22F                  
YAKIMA         FAIR      48  35  60 CALM      30.26F                  
SUNNYSIDE ARPT FAIR      36  33  88 CALM      30.29  FOG              
YAKIMA TC      FAIR      49  35  58 W3        30.23F                  
$$

WAZ028-034-035-152200-
COLUMBIA BASIN
  
CITY           SKY/WX    TMP DP  RH WIND       PRES   REMARKS
EPHRATA        FAIR      42  33  70 CALM      30.25F                  
MOSES LAKE     FAIR      43  32  65 CALM      30.27F                  
PASCO          FAIR      43  34  70 W6        30.31F                  
RICHLAND ARPT  FAIR      42  36  80 CALM      30.31                   
HERMISTON, OR  FAIR      51  41  68 CALM      30.26F                  
$$

WAZ036>038-152200-
NORTHEAST WASHINGTON
  
CITY           SKY/WX    TMP DP  RH WIND       PRES   REMARKS
SPOKANE GEIGER CLOUDY    37  35  92 MISG      30.23F FOG              
SPOKANE FELTS  CLOUDY    39  34  82 W5        30.25F HAZE             
FAIRCHILD AFB  CLOUDY    39  39 100 SW7       30.22F                  
COEURDALENE,ID CLOUDY    44  38  79 CALM      30.23F                  
DEER PARK      FOG       36  35  96 N3        30.25F VSB 1/2          
$$

WAZ029>033-152200-
SOUTHEAST WASHINGTON
  
CITY           SKY/WX    TMP DP  RH WIND       PRES   REMARKS
PULLMAN        CLOUDY    51  37  58 CALM      30.25F                  
LEWISTON, ID   FAIR      53  37  54 W5        30.24F                  
WALLA WALLA    FAIR      45  35  68 S6        30.26F                  
PENDLETON, OR  FAIR      54  41  61 NW9       30.24F                  
$$